Location: �perlecques
(50.8057°N, 2.1521°E)
Time: 20:09:27
(UTC+00:00)

Tiros 1 - Pass Details

Date: 06 August 2021
Orbit: 630 x 663 km, 48.4° (Epoch: 28 September)

Event Time Altitude Azimuth Distance (km) Brightness Sun altitude
Rises 21:53:45 0° 279° (W) 2,974 11.2 -17.5°
Reaches altitude 10° 21:56:40 10° 262° (W) 2,053 10.0 -17.8°
Maximum altitude 21:59:56 19° 218° (SW) 1,545 8.9 -18.0°
Enters shadow 22:00:36 18° 207° (SSW) 1,566 8.8 -18.1°
Drops below altitude 10° 22:03:11 10° 174° (S) 2,031 - -18.3°
Sets 22:06:04 0° 156° (SSE) 2,929 - -18.5°
